Pittsfield, IL

5:45 PM CST on January 22, 2017 (GMT -0600)
Pittsfield Penstone Municipal

Weather History for KPPQ - May, 2009

Change the Weather History Date:

Tuesday, May 12, 2009

  Actual Average (KUIN) Record (KUIN)
Temperature  
Mean Temperature 64 °F -  
Max Temperature 78 °F 71 °F 93 °F (1956)
Min Temperature 50 °F 51 °F 35 °F (1960)
Degree Days  
Heating Degree Days 1    
Growing Degree Days 14 (Base 50)    
Moisture  
Dew Point 40 °F    
Average Humidity 46    
Maximum Humidity 82    
Minimum Humidity 16    
Precipitation  
Precipitation 0.00 in - - ()
Sea Level Pressure  
Sea Level Pressure 30.09 in    
Wind  
Wind Speed 6 mph (SE)    
Max Wind Speed 24 mph    
Max Gust Speed 29 mph    
Visibility 10 miles    
Events Thunderstorm    
Averages and records for this station are not official NWS values.
T = Trace of Precipitation, MM = Missing Value Source: NWS Daily Summary

Daily Weather History Graph

Daily Weather History Graph

Search for Another Location

Airport or City:

Trip Planner

Search our weather history database for the weather conditions in past years. The results will help you decide how hot, cold, wet, or windy it might be!

Date:

Astronomy

May. 12, 2009 Rise Set
Actual Time 5:51 AM CDT 8:08 PM CDT
Civil Twilight 5:21 AM CDT 8:38 PM CDT
Nautical Twilight 4:44 AM CDT 9:15 PM CDT
Astronomical Twilight 4:03 AM CDT 9:56 PM CDT
Moon 11:45 PM CDT (5/12) 8:04 AM CDT (5/12)
Length of Visible Light 15h 17m
Length of Day
14h 16m
Waning Gibbous, 88% of the Moon is Illuminated
May 12
Waning Gibbous
May 17
Last Quarter
May 24
New
May 30
First Quarter
Jun 7
Full

Hourly Weather History & Observations

Time (CDT) Temp. Dew Point Humidity Pressure Visibility Wind Dir Wind Speed Gust Speed Precip Events Conditions
12:06 AM 55.4 °F 48.2 °F 77% 30.17 in 10.0 mi Calm Calm - N/A   Clear
12:26 AM 55.4 °F 48.2 °F 77% 30.18 in 10.0 mi Calm Calm - N/A   Clear
12:46 AM 55.4 °F 48.2 °F 77% 30.18 in 10.0 mi Calm Calm - N/A   Clear
1:06 AM 55.4 °F 48.2 °F 77% 30.18 in 10.0 mi Calm Calm - N/A   Clear
1:26 AM 55.4 °F 48.2 °F 77% 30.17 in 10.0 mi Calm Calm - N/A   Clear
1:46 AM 53.6 °F 48.2 °F 82% 30.18 in 10.0 mi Calm Calm - N/A   Clear
2:06 AM 53.6 °F 46.4 °F 77% 30.17 in 10.0 mi Calm Calm - N/A   Clear
2:26 AM 53.6 °F 46.4 °F 77% 30.17 in 10.0 mi Calm Calm - N/A   Clear
2:46 AM 53.6 °F 46.4 °F 77% 30.16 in 10.0 mi Calm Calm - N/A   Clear
3:06 AM 53.6 °F 46.4 °F 77% 30.16 in 10.0 mi Calm Calm - N/A   Clear
3:26 AM 51.8 °F 46.4 °F 82% 30.16 in 10.0 mi Calm Calm - N/A   Clear
3:46 AM 51.8 °F 46.4 °F 82% 30.16 in 10.0 mi Calm Calm - N/A   Clear
4:06 AM 51.8 °F 46.4 °F 82% 30.16 in 10.0 mi Calm Calm - N/A   Clear
4:26 AM 51.8 °F 46.4 °F 82% 30.16 in 10.0 mi Calm Calm - N/A   Clear
4:46 AM 53.6 °F 46.4 °F 77% 30.16 in 10.0 mi Calm Calm - N/A   Clear
5:06 AM 51.8 °F 44.6 °F 76% 30.17 in 10.0 mi Calm Calm - N/A   Clear
5:28 AM 50.0 °F 44.6 °F 82% 30.17 in 10.0 mi Calm Calm - N/A   Clear
6:06 AM 50.0 °F 44.6 °F 82% 30.18 in 10.0 mi Calm Calm - N/A   Clear
6:26 AM 51.8 °F 46.4 °F 82% 30.18 in 10.0 mi Calm Calm - N/A   Clear
6:46 AM 53.6 °F 46.4 °F 77% 30.18 in 10.0 mi Calm Calm - N/A   Clear
7:06 AM 53.6 °F 48.2 °F 82% 30.19 in 10.0 mi Calm Calm - N/A   Clear
7:26 AM 57.2 °F 48.2 °F 72% 30.19 in 10.0 mi Calm Calm - N/A   Mostly Cloudy
7:46 AM 59.0 °F 46.4 °F 63% 30.19 in 10.0 mi SE 3.5 mph - N/A   Overcast
8:06 AM 60.8 °F 48.2 °F 63% 30.19 in 10.0 mi SSE 3.5 mph - N/A   Overcast
8:27 AM 62.6 °F 48.2 °F 59% 30.19 in 10.0 mi SSE 4.6 mph - N/A   Overcast
8:46 AM 64.4 °F 48.2 °F 56% 30.18 in 10.0 mi SSE 6.9 mph - N/A   Overcast
9:06 AM 66.2 °F 46.4 °F 49% 30.18 in 10.0 mi SSE 9.2 mph - N/A   Overcast
9:26 AM 66.2 °F 44.6 °F 46% 30.18 in 10.0 mi South 11.5 mph - N/A   Overcast
9:46 AM 68.0 °F 44.6 °F 43% 30.18 in 10.0 mi South 10.4 mph - N/A   Overcast
10:06 AM 69.8 °F 42.8 °F 38% 30.17 in 10.0 mi SSE 10.4 mph - N/A   Overcast
10:26 AM 71.6 °F 39.2 °F 31% 30.17 in 10.0 mi SSE 10.4 mph - N/A   Scattered Clouds
10:46 AM 73.4 °F 37.4 °F 27% 30.16 in 10.0 mi SE 16.1 mph - N/A   Clear
11:08 AM 73.4 °F 35.6 °F 25% 30.16 in 10.0 mi SSE 16.1 mph 21.9 mph N/A   Clear
11:28 AM 75.2 °F 33.8 °F 22% 30.15 in 10.0 mi SSE 13.8 mph 21.9 mph N/A   Clear
11:46 AM 75.2 °F 37.4 °F 25% 30.14 in 10.0 mi SE 13.8 mph - N/A   Clear
12:06 PM 75.2 °F 37.4 °F 25% 30.13 in 10.0 mi ESE 17.3 mph 25.3 mph N/A   Scattered Clouds
12:28 PM 75.2 °F 35.6 °F 24% 30.12 in 10.0 mi SSE 12.7 mph 20.7 mph N/A   Scattered Clouds
1:06 PM 77.0 °F 33.8 °F 21% 30.09 in 10.0 mi SSE 18.4 mph 21.9 mph N/A   Scattered Clouds
1:26 PM 77.0 °F 32.0 °F 19% 30.08 in 10.0 mi ESE 20.7 mph 24.2 mph N/A   Scattered Clouds
1:46 PM 78.8 °F 30.2 °F 17% 30.07 in 10.0 mi SSE 18.4 mph 25.3 mph N/A   Scattered Clouds
2:06 PM 77.0 °F 30.2 °F 18% 30.06 in 10.0 mi SE 18.4 mph 25.3 mph N/A   Scattered Clouds
2:26 PM 78.8 °F 30.2 °F 17% 30.05 in 10.0 mi SE 18.4 mph 26.5 mph N/A   Scattered Clouds
2:46 PM 78.8 °F 30.2 °F 17% 30.03 in 10.0 mi SE 19.6 mph 25.3 mph N/A   Scattered Clouds
3:06 PM 78.8 °F 28.4 °F 16% 30.02 in 10.0 mi SSE 21.9 mph 28.8 mph N/A   Clear
3:26 PM 78.8 °F 28.4 °F 16% 30.01 in 10.0 mi SSE 24.2 mph - N/A   Scattered Clouds
3:46 PM 78.8 °F 30.2 °F 17% 30.01 in 10.0 mi SSE 24.2 mph 28.8 mph N/A   Scattered Clouds
4:06 PM 78.8 °F 28.4 °F 16% 30.00 in 10.0 mi SE 19.6 mph 27.6 mph N/A   Clear
4:26 PM 78.8 °F 30.2 °F 17% 29.99 in 10.0 mi SSE 16.1 mph 27.6 mph N/A   Scattered Clouds
4:46 PM 78.8 °F 30.2 °F 17% 29.99 in 10.0 mi SE 21.9 mph 27.6 mph N/A   Scattered Clouds
5:09 PM 78.8 °F 30.2 °F 17% 29.98 in 10.0 mi SE 20.7 mph 26.5 mph N/A   Clear
5:26 PM 77.0 °F 30.2 °F 18% 29.98 in 10.0 mi SSE 19.6 mph 28.8 mph N/A   Clear
5:46 PM 75.2 °F 33.8 °F 22% 29.97 in 10.0 mi SSE 15.0 mph 24.2 mph N/A   Mostly Cloudy
6:06 PM 75.2 °F 35.6 °F 24% 29.95 in 10.0 mi SSE 16.1 mph 21.9 mph N/A   Mostly Cloudy
6:26 PM 75.2 °F 35.6 °F 24% 29.94 in 10.0 mi SE 17.3 mph 23.0 mph N/A   Mostly Cloudy
6:46 PM 73.4 °F 37.4 °F 27% 29.93 in 10.0 mi SE 15.0 mph 20.7 mph N/A   Mostly Cloudy
7:06 PM 73.4 °F 37.4 °F 27% 29.91 in 10.0 mi SE 17.3 mph 21.9 mph N/A   Mostly Cloudy
7:26 PM 73.4 °F 37.4 °F 27% 29.91 in 10.0 mi SE 15.0 mph 24.2 mph N/A   Scattered Clouds
7:46 PM 73.4 °F 39.2 °F 29% 29.91 in 10.0 mi SE 18.4 mph 23.0 mph N/A   Scattered Clouds
8:07 PM 71.6 °F 39.2 °F 31% 29.91 in 10.0 mi SE 16.1 mph 20.7 mph N/A   Scattered Clouds
8:26 PM 71.6 °F 39.2 °F 31% 29.89 in 10.0 mi ESE 13.8 mph - N/A   Clear
8:46 PM 71.6 °F 41.0 °F 33% 29.90 in 10.0 mi SE 11.5 mph 19.6 mph N/A Thunderstorm Clear
9:06 PM 69.8 °F 42.8 °F 38% 29.91 in 10.0 mi ESE 8.1 mph - N/A   Clear
9:26 PM 69.8 °F 42.8 °F 38% 29.92 in 10.0 mi SE 8.1 mph - N/A   Scattered Clouds
9:46 PM 69.8 °F 44.6 °F 40% 29.91 in 10.0 mi ESE 8.1 mph - N/A   Mostly Cloudy
10:06 PM 68.0 °F 46.4 °F 46% 29.91 in 10.0 mi ESE 10.4 mph - N/A Rain Light Rain
10:26 PM 66.2 °F 46.4 °F 49% 29.90 in 10.0 mi ESE 9.2 mph - N/A   Clear
10:46 PM 66.2 °F 46.4 °F 49% 29.90 in 10.0 mi ESE 8.1 mph - N/A Thunderstorm Thunderstorm
11:06 PM 66.2 °F 48.2 °F 52% 29.90 in 10.0 mi ESE 6.9 mph - N/A Rain Light Rain
11:46 PM 66.2 °F 48.2 °F 52% 29.87 in 10.0 mi ESE 6.9 mph - N/A   Mostly Cloudy